Location: Cahas Mountain Overlook
(37.0833°N, 80.1000°W)
Time: 11:08:52
(UTC-04:00)

Vanguard 1 Rocket - Pass Details

Date: 09 February 2026
Orbit: 653 x 4214 km, 34.3° (Epoch: 15 March)

Event Time Altitude Azimuth Distance (km) Brightness Sun altitude
Rises 22:19:09 0° 287° (WNW) 7,981 12.8 -52.3°
Reaches altitude 10° 22:24:53 10° 281° (WNW) 7,207 12.3 -53.3°
Maximum altitude 22:47:10 40° 223° (SW) 5,146 11.0 -57.0°
Enters shadow 22:49:15 39° 214° (SW) 5,098 10.9 -57.4°
